When you browse on this site, cookies collect data to enhance your experience and personalize the content and advertising you see.
Visit our Privacy Policy to learn more. By continuing to use the site, you agree to this use of cookies and data.
  • In Czech Republic
  • List of Countries
  • For 7 days
  • Water Temperature
  • Weather Map
  • Weather Widgets
  • user-avatar
    Login

    Hourly Weather Ho Chi Minh

    Today, 19 February, Wednesday

    Time Temperature Precipitation Wind Pressure Humidity
    00:00 +26°C° 0 mm 1 mps 760 mmHg 61%
    01:00 +26°C° 0 mm 1 mps 760 mmHg 60%
    02:00 +25°C° 0 mm 1 mps 760 mmHg 62%
    03:00 +25°C° 0 mm 1 mps 760 mmHg 63%
    04:00 +24°C° 0 mm 1 mps 760 mmHg 65%
    05:00 +24°C° 0 mm 1 mps 760 mmHg 65%
    06:00 +25°C° 0 mm 1 mps 760 mmHg 64%
    07:00 +25°C° 0 mm 1 mps 761 mmHg 65%
    08:00 +28°C° 0 mm 1 mps 761 mmHg 57%
    09:00 +30°C° 0 mm 1 mps 761 mmHg 49%
    10:00 +33°C° 0 mm 1 mps 761 mmHg 41%
    11:00 +35°C° 0 mm 1 mps 760 mmHg 37%
    12:00 +36°C° 0 mm 1 mps 760 mmHg 32%
    13:00 +37°C° 0 mm 1 mps 759 mmHg 30%
    14:00 +38°C° 0 mm 2 mps 758 mmHg 31%
    15:00 +37°C° 0 mm 3 mps 758 mmHg 32%
    16:00 +37°C° 0 mm 4 mps 757 mmHg 33%
    17:00 +34°C° 0 mm 4 mps 758 mmHg 41%
    18:00 +32°C° 0 mm 5 mps 758 mmHg 49%
    19:00 +29°C° 0 mm 6 mps 758 mmHg 57%
    20:00 +28°C° 0 mm 5 mps 759 mmHg 59%
    21:00 +28°C° 0 mm 4 mps 759 mmHg 61%
    22:00 +27°C° 0 mm 3 mps 760 mmHg 64%
    23:00 +27°C° 0 mm 2 mps 760 mmHg 66%

    Tomorrow, 20 February, Thursday

    Time Temperature Precipitation Wind Pressure Humidity
    00:00 +26°C° 0 mm 2 mps 760 mmHg 68%
    01:00 +25°C° 0 mm 1 mps 760 mmHg 70%
    02:00 +25°C° 0 mm 1 mps 759 mmHg 71%
    03:00 +25°C° 0 mm 1 mps 759 mmHg 72%
    04:00 +24°C° 0 mm 1 mps 759 mmHg 73%
    05:00 +24°C° 0 mm 1 mps 760 mmHg 72%
    06:00 +24°C° 0 mm 1 mps 760 mmHg 71%
    07:00 +24°C° 0 mm 1 mps 761 mmHg 71%
    08:00 +27°C° 0 mm 1 mps 761 mmHg 61%
    09:00 +30°C° 0 mm 1 mps 761 mmHg 51%
    10:00 +33°C° 0 mm 1 mps 761 mmHg 41%
    11:00 +35°C° 0 mm 1 mps 760 mmHg 37%
    12:00 +36°C° 0 mm 1 mps 760 mmHg 33%
    13:00 +39°C° 0 mm 1 mps 759 mmHg 29%
    14:00 +38°C° 0 mm 2 mps 758 mmHg 30%
    15:00 +37°C° 0 mm 3 mps 757 mmHg 32%
    16:00 +37°C° 0 mm 4 mps 757 mmHg 34%
    17:00 +35°C° 0 mm 4 mps 757 mmHg 40%
    18:00 +33°C° 0 mm 4 mps 758 mmHg 46%
    19:00 +30°C° 0 mm 5 mps 758 mmHg 52%
    20:00 +29°C° 0 mm 4 mps 759 mmHg 52%
    21:00 +29°C° 0 mm 4 mps 759 mmHg 53%
    22:00 +28°C° 0 mm 4 mps 760 mmHg 53%
    23:00 +28°C° 0 mm 3 mps 760 mmHg 55%

    Day after tomorrow, 21 February, Friday

    Time Temperature Precipitation Wind Pressure Humidity
    00:00 +27°C° 0 mm 2 mps 760 mmHg 57%
    01:00 +27°C° 0 mm 2 mps 760 mmHg 59%
    02:00 +26°C° 0 mm 2 mps 760 mmHg 61%
    03:00 +25°C° 0 mm 1 mps 759 mmHg 64%
    04:00 +25°C° 0 mm 1 mps 759 mmHg 66%
    05:00 +25°C° 0 mm 1 mps 760 mmHg 66%
    06:00 +25°C° 0 mm 1 mps 760 mmHg 66%
    07:00 +25°C° 0 mm 1 mps 761 mmHg 66%
    08:00 +28°C° 0 mm 1 mps 761 mmHg 56%
    09:00 +31°C° 0 mm 1 mps 761 mmHg 46%
    10:00 +34°C° 0 mm 1 mps 761 mmHg 37%
    11:00 +35°C° 0 mm 1 mps 761 mmHg 33%
    12:00 +38°C° 0 mm 2 mps 760 mmHg 29%
    13:00 +39°C° 0 mm 2 mps 759 mmHg 25%
    20:00 +30°C° 0 mm 4 mps 760 mmHg 50%
    21:00 +29°C° 0 mm 3 mps 760 mmHg 51%
    22:00 +29°C° 0 mm 3 mps 761 mmHg 53%
    23:00 +28°C° 0 mm 2 mps 761 mmHg 55%

    22 February, Saturday

    Time Temperature Precipitation Wind Pressure Humidity
    00:00 +27°C° 0 mm 2 mps 761 mmHg 58%
    01:00 +26°C° 0 mm 1 mps 761 mmHg 60%
    02:00 +25°C° 0 mm 1 mps 760 mmHg 62%
    03:00 +25°C° 0 mm 1 mps 760 mmHg 65%
    04:00 +24°C° 0 mm 1 mps 760 mmHg 67%
    05:00 +24°C° 0 mm 1 mps 760 mmHg 66%
    06:00 +25°C° 0 mm 1 mps 761 mmHg 65%
    07:00 +25°C° 0 mm 1 mps 762 mmHg 64%
    08:00 +28°C° 0 mm 2 mps 762 mmHg 55%
    09:00 +30°C° 0 mm 2 mps 762 mmHg 46%
    10:00 +34°C° 0 mm 2 mps 762 mmHg 37%
    11:00 +35°C° 0 mm 2 mps 761 mmHg 34%
    12:00 +37°C° 0 mm 2 mps 760 mmHg 30%
    13:00 +38°C° 0 mm 3 mps 759 mmHg 27%
    14:00 +38°C° 0 mm 3 mps 758 mmHg 29%
    15:00 +38°C° 0 mm 4 mps 758 mmHg 30%
    16:00 +39°C° 0 mm 5 mps 757 mmHg 32%
    17:00 +36°C° 0 mm 4 mps 758 mmHg 38%
    18:00 +33°C° 0 mm 4 mps 758 mmHg 45%
    19:00 +30°C° 0 mm 3 mps 759 mmHg 51%
    20:00 +29°C° 0 mm 3 mps 759 mmHg 52%
    21:00 +29°C° 0 mm 3 mps 760 mmHg 53%
    22:00 +28°C° 0 mm 2 mps 761 mmHg 54%
    23:00 +27°C° 0 mm 2 mps 760 mmHg 57%

    23 February, Sunday

    Time Temperature Precipitation Wind Pressure Humidity
    00:00 +26°C° 0 mm 2 mps 760 mmHg 59%
    01:00 +25°C° 0 mm 2 mps 760 mmHg 62%
    02:00 +25°C° 0 mm 2 mps 760 mmHg 63%
    03:00 +24°C° 0 mm 2 mps 760 mmHg 65%
    04:00 +23°C° 0 mm 2 mps 759 mmHg 66%
    05:00 +24°C° 0 mm 2 mps 760 mmHg 65%
    06:00 +24°C° 0 mm 2 mps 760 mmHg 64%
    07:00 +24°C° 0 mm 2 mps 761 mmHg 63%
    08:00 +27°C° 0 mm 1 mps 761 mmHg 53%
    09:00 +30°C° 0 mm 1 mps 761 mmHg 42%
    10:00 +33°C° 0 mm 1 mps 761 mmHg 31%
    11:00 +35°C° 0 mm 1 mps 760 mmHg 28%
    12:00 +36°C° 0 mm 1 mps 759 mmHg 25%
    13:00 +38°C° 0 mm 2 mps 758 mmHg 22%
    14:00 +38°C° 0 mm 3 mps 758 mmHg 24%
    15:00 +38°C° 0 mm 3 mps 757 mmHg 27%
    16:00 +38°C° 0 mm 4 mps 756 mmHg 29%
    17:00 +35°C° 0 mm 4 mps 757 mmHg 38%
    18:00 +33°C° 0 mm 5 mps 757 mmHg 46%
    19:00 +29°C° 0 mm 5 mps 757 mmHg 55%
    20:00 +28°C° 0 mm 4 mps 758 mmHg 57%
    21:00 +28°C° 0 mm 3 mps 759 mmHg 58%
    22:00 +27°C° 0 mm 3 mps 759 mmHg 60%
    23:00 +27°C° 0 mm 2 mps 759 mmHg 61%

    24 February, Monday

    Time Temperature Precipitation Wind Pressure Humidity
    00:00 +26°C° 0 mm 2 mps 759 mmHg 63%
    01:00 +26°C° 0 mm 1 mps 759 mmHg 64%
    02:00 +25°C° 0 mm 1 mps 759 mmHg 65%
    03:00 +25°C° 0 mm 1 mps 758 mmHg 66%
    04:00 +24°C° 0 mm 1 mps 758 mmHg 66%
    05:00 +24°C° 0 mm 1 mps 759 mmHg 65%
    06:00 +25°C° 0 mm 2 mps 759 mmHg 64%
    07:00 +25°C° 0 mm 2 mps 759 mmHg 63%
    08:00 +28°C° 0 mm 1 mps 759 mmHg 55%
    09:00 +30°C° 0 mm 1 mps 759 mmHg 46%
    10:00 +33°C° 0 mm 1 mps 760 mmHg 38%
    11:00 +35°C° 0 mm 1 mps 759 mmHg 35%
    12:00 +36°C° 0 mm 1 mps 758 mmHg 32%
    13:00 +38°C° 0 mm 2 mps 757 mmHg 28%
    14:00 +38°C° 0 mm 2 mps 756 mmHg 30%
    15:00 +38°C° 0 mm 3 mps 756 mmHg 31%
    16:00 +37°C° 0 mm 4 mps 755 mmHg 33%
    17:00 +35°C° 0 mm 4 mps 756 mmHg 39%
    18:00 +33°C° 0 mm 5 mps 756 mmHg 45%
    19:00 +30°C° 0 mm 5 mps 756 mmHg 51%
    20:00 +29°C° 0 mm 5 mps 757 mmHg 54%
    21:00 +29°C° 0 mm 4 mps 757 mmHg 56%
    22:00 +28°C° 0 mm 4 mps 758 mmHg 59%
    23:00 +28°C° 0 mm 4 mps 758 mmHg 60%
    Show more